Regional Weather Roundup
Issued by NWS

Home | Current Version | Previous Version | Text Only | Print | Product List | Glossary On
Versions: 1 2 3 4 5 6 7 8 9 10 11 12 13 14 15 16 17 18 19 20 21 22 23 24 25 26 27 28
000
ASUS42 KKEY 281010
RWRKEY

FLORIDA REGIONAL WEATHER ROUNDUP FOR THE FLORIDA KEYS
NATIONAL WEATHER SERVICE KEY WEST FLORIDA
600 AM EDT SUN AUG 28 2016

...SOUTH FLORIDA AND THE KEYS...

CITY           SKY/WX    TMP DP  RH WIND       PRES   REMARKS
FORT MYERS     CLEAR     77  76  96 NE6       29.91R
SW REGIONAL AP CLEAR     78  75  90 NE6       29.91R
NAPLES         CLEAR     79  77  94 NE7       29.89R
MIAMI          CLOUDY    82  77  84 E17G23    29.88R HX  90
WEST KENDALL   LGT RAIN  78  76  93 E13       29.87S
HOMESTEAD      CLOUDY    80  75  84 E13       29.86R
MARATHON       LGT RAIN  83  76  79 E12       29.83S HX  91
BOCA CHICA NAS PTCLDY     2  32 100 NE10      29.84R WCI -14
KEY WEST INTL  PTCLDY    80  78  94 NE8G18    29.85R

...INTERNATIONAL WEATHER...

CITY           SKY/WX    TMP DP  RH WIND       PRES   REMARKS
NASSAU BAHAMAS PTCLDY    79  75  89 E6        29.92R
CANCUN MEXICO  PTCLDY    75  75 100 CALM      29.87
COZUMEL MEXICO MOCLDY    75  75 100 CALM      29.86S

ADJACENT COASTAL WATERS...

STATION/POSITION TIME  SKY/WX   TEMP    WIND        PRES    WAVE
                                AIR SEA DIR/SP/G            HT/PER
                 (UTC)          (F)     (DEG/KT/KT) (MB)    (FT/S)
PULASKI SHOAL LI 1000            85      70/ 16/ 18 1011.1R
SAND KEY         0950            84      50/ 18/ 21 1010.8R
LONG KEY         0900            84 86   80/ 17/ 20 1010.6R
FOWEY ROCKS      1000            84 85   90/ 22/ 23 1011.9R

$$




USA.gov is the U.S. government's official web portal to all federal, state and local government web resources and services.